Ventas de Huelma, Spain

11:00 PM CET en Diciembre 18, 2018 (GMT +0100)
Ventas de Huelma

Tiempo Historia de 08419 - Diciembre, 2018

Change the Weather History Date:

Viernes, Diciembre 7, 2018

  Actual Average Record
Temperature  
Temperatura media 50 ° F -  
Temperatura máxima 68 ° F 54 ° F - ()
Temperatura mínima 33 ° F 33 ° F - ()
Degree Days  
Grados día de calefacción 14    
Moisture  
Punto de rocío 39 ° F    
Average Humidity 79    
Maximum Humidity 100    
Minimum Humidity 35    
Precipitación  
Precipitación 0.00 pul - - ()
Presión al nivel del mar  
Presión al nivel del mar 30.38 pul    
Viento  
Velocidad del viento 0 mph ()    
Velocidad máxima del viento 5 mph    
Max Gust Speed -    
Visibilidad 6.0 Millas    
Eventos      
T = Trace of Precipitation, MM = Missing Value Source: Averaged Metar Reports

Daily Weather History Graph

Daily Weather History Graph

Search for Another Location

Airport or City:

Astronomía

Dec. 07, 2018 Salida Puesta
Hora real 8:15 AM CET 5:57 PM CET
Crepúsculo civil 7:46 AM CET 6:26 PM CET
Crepúsculo náutico 7:14 AM CET 6:58 PM CET
Crepúsculo astronómico 6:42 AM CET 7:30 PM CET
Luna 8:09 AM CET (12/7) 6:23 PM CET (12/7)
Horas de luz 10h 40m
Horas de luz
9h 42m
Luna nueva, 0% of the Moon is Illuminated
Dic 7
Luna nueva
Dic 15
Cuarto creciente
Dic 22
Luna llena
Dic 29
Cuarto menguante
Ene 6
Nueva

Hourly Weather History & Observations

Hora (CET) Temp. Vientos helados Punto de rocío Humedad Presión Visibilidad Wind Dir Velocidad del viento Velocidad de ráfagas Precip Eventos Condiciones
12:00 AM 41.0 ° F - 39.2 ° F 93% 30.36 pul 6.2 mi Sin viento Sin viento - N/A   Desconocido
12:30 AM 41.0 ° F - 39.2 ° F 93% 30.36 pul 6.2 mi Sin viento Sin viento - N/A   Desconocido
1:00 AM 41.0 ° F - 39.2 ° F 93% 30.36 pul 6.2 mi OSO 1.2 mph - N/A   Desconocido
1:30 AM 39.2 ° F - 37.4 ° F 93% 30.36 pul 6.2 mi Sin viento Sin viento - N/A   Desconocido
2:00 AM 38 ° F - 36 ° F 91% 30.43 pul 6 mi Sur 1.2 mph - -  
2:00 AM 37.4 ° F - 37.4 ° F 100% 30.36 pul 5.6 mi Sur 1.2 mph - N/A   Desconocido
2:30 AM 37.4 ° F - 37.4 ° F 100% 30.36 pul 6.2 mi Sin viento Sin viento - N/A   Desconocido
3:00 AM 37 ° F - 36 ° F 96% 30.44 pul 6 mi Sin viento Sin viento - -  
3:00 AM 39.2 ° F - 37.4 ° F 93% 30.36 pul 5.6 mi Sin viento Sin viento - N/A   Desconocido
3:30 AM 37.4 ° F - 35.6 ° F 93% 30.36 pul 3.7 mi Sin viento Sin viento - N/A   Desconocido
4:00 AM 36 ° F - 35 ° F 92% 30.44 pul 6 mi Sin viento Sin viento - -  
4:00 AM 37.4 ° F - 35.6 ° F 93% 30.36 pul 6.2 mi Sin viento Sin viento - N/A   Desconocido
4:30 AM 37.4 ° F - 35.6 ° F 93% 30.36 pul 5.0 mi Sin viento Sin viento - N/A   Desconocido
5:00 AM 35 ° F - 34 ° F 94% 30.44 pul 6 mi Sin viento Sin viento - -  
5:00 AM 35.6 ° F - 33.8 ° F 93% 30.36 pul 5.6 mi Sin viento Sin viento - N/A   Desconocido
5:30 AM 35.6 ° F - 33.8 ° F 93% 30.36 pul 4.3 mi Sin viento Sin viento - N/A   Desconocido
6:00 AM 34 ° F - 33 ° F 96% 30.44 pul 7 mi Sin viento Sin viento - -  
6:00 AM 35.6 ° F - 33.8 ° F 93% 30.36 pul 5.6 mi Sin viento Sin viento - N/A   Desconocido
6:30 AM 35.6 ° F 32.8 ° F 33.8 ° F 93% 30.36 pul 5.6 mi SO 3.5 mph - N/A   Desconocido
7:00 AM 34 ° F - 33 ° F 95% 30.45 pul 6 mi Sin viento Sin viento - -   Despejado
7:00 AM 35.6 ° F - 33.8 ° F 93% 30.36 pul 5.6 mi Sin viento Sin viento - N/A   Desconocido
7:30 AM 33.8 ° F - 32.0 ° F 93% 30.36 pul 5.6 mi Sin viento Sin viento - N/A   Desconocido
8:00 AM 33 ° F - 32 ° F 93% 30.47 pul 6 mi Sin viento Sin viento - -   Despejado
8:00 AM 33.8 ° F - 32.0 ° F 93% 30.36 pul 5.6 mi Sin viento Sin viento - N/A   Desconocido
8:30 AM 33.8 ° F - 32.0 ° F 93% 30.39 pul - Sin viento Sin viento - N/A   Despejado
9:00 AM 33.8 ° F - 33.8 ° F 100% 30.39 pul - Sin viento Sin viento - N/A   Despejado
9:30 AM 39.2 ° F - 37.4 ° F 93% 30.39 pul - Sin viento Sin viento - N/A   Despejado
10:00 AM 40 ° F - 37 ° F 87% 30.47 pul 2 mi Sin viento Sin viento - -   Neblina
10:30 AM 44.6 ° F - 41.0 ° F 87% 30.42 pul 5.6 mi Sin viento Sin viento - N/A   Desconocido
11:00 AM 46 ° F - 40 ° F 74% 30.44 pul 4 mi Sin viento Sin viento - -  
11:00 AM 48.2 ° F - 41.0 ° F 76% 30.42 pul 4.3 mi Sin viento Sin viento - N/A   Desconocido
11:30 AM 48.2 ° F - 42.8 ° F 82% 30.39 pul 5.0 mi Sin viento Sin viento - N/A   Desconocido
12:00 PM 53 ° F - 43 ° F 58% 30.40 pul 6 mi Sin viento Sin viento - -  
12:00 PM 51.8 ° F - 42.8 ° F 71% 30.39 pul 5.0 mi Sin viento Sin viento - N/A   Desconocido
12:30 PM 53.6 ° F - 42.8 ° F 67% 30.39 pul 5.6 mi Sin viento Sin viento - N/A   Desconocido
1:00 PM 58 ° F - 42 ° F 45% 30.35 pul 3 mi Sin viento Sin viento - -   Neblina
1:00 PM 57.2 ° F - 41.0 ° F 55% 30.36 pul - Sin viento Sin viento - N/A   Despejado
1:30 PM 59.0 ° F - 42.8 ° F 55% 30.36 pul - Variable 1.2 mph - N/A   Despejado
2:00 PM 61 ° F - 42 ° F 38% 30.32 pul 9 mi Sin viento Sin viento - -   Despejado
2:00 PM 64.4 ° F - 42.8 ° F 45% 30.36 pul - Sin viento Sin viento - N/A   Despejado
2:30 PM 64.4 ° F - 42.8 ° F 45% 30.33 pul - Sin viento Sin viento - N/A   Despejado
3:00 PM 64.4 ° F - 44.6 ° F 49% 30.33 pul - Variable 1.2 mph - N/A   Despejado
3:30 PM 66.2 ° F - 42.8 ° F 43% 30.33 pul - Variable 1.2 mph - N/A   Despejado
4:00 PM 66.2 ° F - 42.8 ° F 43% 30.33 pul - Variable 1.2 mph - N/A   Despejado
4:30 PM 68.0 ° F - 42.8 ° F 40% 30.33 pul - Sin viento Sin viento - N/A   Despejado
5:00 PM 65 ° F - 44 ° F 35% 30.29 pul 19 mi Sin viento Sin viento - -  
5:00 PM 66.2 ° F - 44.6 ° F 46% 30.33 pul - Sin viento Sin viento - N/A   Despejado
5:30 PM 64.4 ° F - 42.8 ° F 45% 30.33 pul - Sin viento Sin viento - N/A   Despejado
6:00 PM 57.2 ° F - 46.4 ° F 67% 30.33 pul - SE 2.3 mph - N/A   Despejado
6:30 PM 53.6 ° F - 46.4 ° F 77% 30.33 pul - Sur 3.5 mph - N/A   Despejado
7:00 PM 48.2 ° F - 42.8 ° F 82% 30.36 pul - Variable 1.2 mph - N/A   Despejado
7:30 PM 50.0 ° F - 44.6 ° F 82% 30.36 pul 5.6 mi Variable 1.2 mph - N/A   Desconocido
8:00 PM 47 ° F - 43 ° F 79% 30.40 pul 11 mi Oeste 2.3 mph - -  
8:00 PM 48.2 ° F - 42.8 ° F 82% 30.36 pul - Variable 2.3 mph - N/A   Despejado
8:30 PM 50.0 ° F - 44.6 ° F 82% 30.39 pul - Variable 2.3 mph - N/A   Despejado
9:00 PM 45 ° F - 40 ° F 78% 30.43 pul 9 mi SSO 2.3 mph - -  
9:00 PM 46.4 ° F - 42.8 ° F 87% 30.39 pul - Sin viento Sin viento - N/A   Despejado
9:30 PM 46.4 ° F - 42.8 ° F 87% 30.39 pul - SSO 1.2 mph - N/A   Despejado
10:00 PM 42.8 ° F - 41.0 ° F 93% 30.39 pul - NNO 1.2 mph - N/A   Despejado
10:30 PM 42.8 ° F - 41.0 ° F 93% 30.39 pul - Oeste 2.3 mph - N/A   Despejado
11:00 PM 42 ° F - 40 ° F 88% 30.45 pul 6 mi SSO 4.6 mph - -  
11:00 PM 42.8 ° F 41.1 ° F 41.0 ° F 93% 30.39 pul - SSO 3.5 mph - N/A   Despejado
11:30 PM 41.0 ° F - 39.2 ° F 93% 30.39 pul 3.7 mi Sin viento Sin viento - N/A   Desconocido